User: anonymous
Location: Terra Rouge Observatory
(46.0000°N, 62.7500°W)
Time: 06:22:37
(UTC-03:00)
Language:

Landsat 5 - Orbit

View from above orbital plane
View from above orbital plane
View from above satellite
View from above satellite

Ground track
Ground track

The orbit data is extracted from the following two-line orbital elements,

1 14780U 84021A   14107.84491645  .00002027  00000-0  20685-3 0  2762
2 14780 098.0572 184.1505 0096410 011.3389 081.1116 14.88450887603642
Epoch (UTC): 17 April 2014 20:16:40
Eccentricity: 0.0096410
inclination: 98.0572°
perigee height: 535 km
apogee height: 670 km
right ascension of ascending node: 184.1505°
argument of perigee: 11.3389°
revolutions per day: 14.88450887
mean anomaly at epoch: 81.1116°
orbit number at epoch: 60364

The dashed part of the orbit path shows where the satellite is in the earth's shadow,  

DLR